Year,Month,Day,Hour,Minute,Value (Times are PST for temperature in C)
2009,08,05,00,00,14.20
2009,08,05,00,01,14.20
2009,08,05,00,02,14.20
2009,08,05,00,03,14.20
2009,08,05,00,04,14.20
2009,08,05,00,05,14.20
2009,08,05,00,06,14.20
2009,08,05,00,07,14.20
2009,08,05,00,08,14.20
2009,08,05,00,09,14.20
2009,08,05,00,10,14.20
2009,08,05,00,11,14.20
2009,08,05,00,12,14.20
2009,08,05,00,13,14.20
2009,08,05,00,14,14.20
2009,08,05,00,15,14.20
2009,08,05,00,16,14.20
2009,08,05,00,17,14.20
2009,08,05,00,18,14.20
2009,08,05,00,19,14.20
2009,08,05,00,20,14.20
2009,08,05,00,21,14.20
2009,08,05,00,22,14.20
2009,08,05,00,23,14.10
2009,08,05,00,24,14.10
2009,08,05,00,25,14.10
2009,08,05,00,26,14.10
2009,08,05,00,27,14.10
2009,08,05,00,28,14.10
2009,08,05,00,29,14.10
2009,08,05,00,30,14.10
2009,08,05,00,31,14.10
2009,08,05,00,32,14.10
2009,08,05,00,33,14.10
2009,08,05,00,34,14.10
2009,08,05,00,35,14.10
2009,08,05,00,36,14.10
2009,08,05,00,37,14.10
2009,08,05,00,38,14.10
2009,08,05,00,39,14.10
2009,08,05,00,40,14.10
2009,08,05,00,41,14.10
2009,08,05,00,42,14.10
2009,08,05,00,43,14.00
2009,08,05,00,44,14.10
2009,08,05,00,45,14.00
2009,08,05,00,46,14.00
2009,08,05,00,47,14.00
2009,08,05,00,48,14.00
2009,08,05,00,49,14.00
2009,08,05,00,50,14.00
2009,08,05,00,51,14.00
2009,08,05,00,52,14.00
2009,08,05,00,53,14.00
2009,08,05,00,54,14.00
2009,08,05,00,55,14.00
2009,08,05,00,56,14.00
2009,08,05,00,57,14.00
2009,08,05,00,58,14.00
2009,08,05,00,59,14.00
2009,08,05,01,00,14.00
2009,08,05,01,01,14.00
2009,08,05,01,02,13.90
2009,08,05,01,03,13.90
2009,08,05,01,04,13.90
2009,08,05,01,05,13.90
2009,08,05,01,06,14.00
2009,08,05,01,07,14.00
2009,08,05,01,08,14.00
2009,08,05,01,09,14.00
2009,08,05,01,10,14.00
2009,08,05,01,11,14.00
2009,08,05,01,12,14.00
2009,08,05,01,13,14.00
2009,08,05,01,14,14.00
2009,08,05,01,15,14.00
2009,08,05,01,16,14.00
2009,08,05,01,17,14.00
2009,08,05,01,18,14.00
2009,08,05,01,19,14.00
2009,08,05,01,20,13.90
2009,08,05,01,21,13.90
2009,08,05,01,22,13.90
2009,08,05,01,23,13.90
2009,08,05,01,24,13.90
2009,08,05,01,25,13.90
2009,08,05,01,26,13.90
2009,08,05,01,27,13.90
2009,08,05,01,28,13.90
2009,08,05,01,29,13.90
2009,08,05,01,30,13.90
2009,08,05,01,31,13.90
2009,08,05,01,32,13.90
2009,08,05,01,33,13.90
2009,08,05,01,34,13.80
2009,08,05,01,35,13.80
2009,08,05,01,36,13.80
2009,08,05,01,37,13.80
2009,08,05,01,38,13.80
2009,08,05,01,39,13.80
2009,08,05,01,40,13.80
2009,08,05,01,41,13.80
2009,08,05,01,42,13.80
2009,08,05,01,43,13.80
2009,08,05,01,44,13.80
2009,08,05,01,45,13.70
2009,08,05,01,46,13.70
2009,08,05,01,47,13.70
2009,08,05,01,48,13.70
2009,08,05,01,49,13.70
2009,08,05,01,50,13.70
2009,08,05,01,51,13.70
2009,08,05,01,52,13.70
2009,08,05,01,53,13.70
2009,08,05,01,54,13.70
2009,08,05,01,55,13.70
2009,08,05,01,56,13.70
2009,08,05,01,57,13.60
2009,08,05,01,58,13.60
2009,08,05,01,59,13.60
2009,08,05,02,00,13.60
2009,08,05,02,01,13.60
2009,08,05,02,02,13.60
2009,08,05,02,03,13.60
2009,08,05,02,04,13.60
2009,08,05,02,05,13.60
2009,08,05,02,06,13.50
2009,08,05,02,07,13.50
2009,08,05,02,08,13.50
2009,08,05,02,09,13.50
2009,08,05,02,10,13.50
2009,08,05,02,11,13.50
2009,08,05,02,12,13.50
2009,08,05,02,13,13.50
2009,08,05,02,14,13.50
2009,08,05,02,15,13.50
2009,08,05,02,16,13.50
2009,08,05,02,17,13.50
2009,08,05,02,18,13.50
2009,08,05,02,19,13.50
2009,08,05,02,20,13.50
2009,08,05,02,21,13.50
2009,08,05,02,22,13.50
2009,08,05,02,23,13.50
2009,08,05,02,24,13.50
2009,08,05,02,25,13.40
2009,08,05,02,26,13.40
2009,08,05,02,27,13.40
2009,08,05,02,28,13.40
2009,08,05,02,29,13.40
2009,08,05,02,30,13.40
2009,08,05,02,31,13.40
2009,08,05,02,32,13.40
2009,08,05,02,33,13.40
2009,08,05,02,34,13.40
2009,08,05,02,35,13.40
2009,08,05,02,36,13.40
2009,08,05,02,37,13.40
2009,08,05,02,38,13.40
2009,08,05,02,39,13.40
2009,08,05,02,40,13.40
2009,08,05,02,41,13.40
2009,08,05,02,42,13.40
2009,08,05,02,43,13.40
2009,08,05,02,44,13.40
2009,08,05,02,45,13.40
2009,08,05,02,46,13.40
2009,08,05,02,47,13.40
2009,08,05,02,48,13.40
2009,08,05,02,49,13.30
2009,08,05,02,50,13.30
2009,08,05,02,51,13.30
2009,08,05,02,52,13.30
2009,08,05,02,53,13.30
2009,08,05,02,54,13.30
2009,08,05,02,55,13.30
2009,08,05,02,56,13.30
2009,08,05,02,57,13.30
2009,08,05,02,58,13.30
2009,08,05,02,59,13.30
2009,08,05,03,00,13.30
2009,08,05,03,01,13.30
2009,08,05,03,02,13.30
2009,08,05,03,03,13.30
2009,08,05,03,04,13.30
2009,08,05,03,05,13.30
2009,08,05,03,06,13.30
2009,08,05,03,07,13.30
2009,08,05,03,08,13.30
2009,08,05,03,09,13.30
2009,08,05,03,10,13.30
2009,08,05,03,11,13.30
2009,08,05,03,12,13.30
2009,08,05,03,13,13.30
2009,08,05,03,14,13.30
2009,08,05,03,15,13.30
2009,08,05,03,16,13.30
2009,08,05,03,17,13.30
2009,08,05,03,18,13.30
2009,08,05,03,19,13.30
2009,08,05,03,20,13.30
2009,08,05,03,21,13.30
2009,08,05,03,22,13.30
2009,08,05,03,23,13.30
2009,08,05,03,24,13.30
2009,08,05,03,25,13.30
2009,08,05,03,26,13.30
2009,08,05,03,27,13.30
2009,08,05,03,28,13.30
2009,08,05,03,29,13.30
2009,08,05,03,30,13.30
2009,08,05,03,31,13.30
2009,08,05,03,32,13.30
2009,08,05,03,33,13.30
2009,08,05,03,34,13.30
2009,08,05,03,35,13.30
2009,08,05,03,36,13.30
2009,08,05,03,37,13.30
2009,08,05,03,38,13.30
2009,08,05,03,39,13.30
2009,08,05,03,40,13.30
2009,08,05,03,41,13.30
2009,08,05,03,42,13.30
2009,08,05,03,43,13.20
2009,08,05,03,44,13.20
2009,08,05,03,45,13.20
2009,08,05,03,46,13.20
2009,08,05,03,47,13.20
2009,08,05,03,48,13.20
2009,08,05,03,49,13.20
2009,08,05,03,50,13.20
2009,08,05,03,51,13.20
2009,08,05,03,52,13.20
2009,08,05,03,53,13.20
2009,08,05,03,54,13.20
2009,08,05,03,55,13.20
2009,08,05,03,56,13.20
2009,08,05,03,57,13.20
2009,08,05,03,58,13.20
2009,08,05,03,59,13.20
2009,08,05,04,00,13.20
2009,08,05,04,01,13.20
2009,08,05,04,02,13.20
2009,08,05,04,03,13.20
2009,08,05,04,04,13.20
2009,08,05,04,05,13.20
2009,08,05,04,06,13.20
2009,08,05,04,07,13.20
2009,08,05,04,08,13.20
2009,08,05,04,09,13.20
2009,08,05,04,10,13.10
2009,08,05,04,11,13.20
2009,08,05,04,12,13.20
2009,08,05,04,13,13.10
2009,08,05,04,14,13.20
2009,08,05,04,15,13.20
2009,08,05,04,16,13.20
2009,08,05,04,17,13.20
2009,08,05,04,18,13.20
2009,08,05,04,19,13.20
2009,08,05,04,20,13.20
2009,08,05,04,21,13.20
2009,08,05,04,22,13.20
2009,08,05,04,23,13.20
2009,08,05,04,24,13.20
2009,08,05,04,25,13.20
2009,08,05,04,26,13.20
2009,08,05,04,27,13.20
2009,08,05,04,28,13.20
2009,08,05,04,29,13.20
2009,08,05,04,30,13.20
2009,08,05,04,31,13.10
2009,08,05,04,32,13.10
2009,08,05,04,33,13.10
2009,08,05,04,34,13.10
2009,08,05,04,35,13.10
2009,08,05,04,36,13.10
2009,08,05,04,37,13.10
2009,08,05,04,38,13.10
2009,08,05,04,39,13.10
2009,08,05,04,40,13.10
2009,08,05,04,41,13.10
2009,08,05,04,42,13.10
2009,08,05,04,43,13.10
2009,08,05,04,44,13.10
2009,08,05,04,45,13.10
2009,08,05,04,46,13.10
2009,08,05,04,47,13.10
2009,08,05,04,48,13.10
2009,08,05,04,49,13.10
2009,08,05,04,50,13.10
2009,08,05,04,51,13.10
2009,08,05,04,52,13.10
2009,08,05,04,53,13.10
2009,08,05,04,54,13.10
2009,08,05,04,55,13.10
2009,08,05,04,56,13.10
2009,08,05,04,57,13.10
2009,08,05,04,58,13.10
2009,08,05,04,59,13.10
2009,08,05,05,00,13.10
2009,08,05,05,01,13.10
2009,08,05,05,02,13.10
2009,08,05,05,03,13.10
2009,08,05,05,04,13.10
2009,08,05,05,05,13.10
2009,08,05,05,06,13.10
2009,08,05,05,07,13.10
2009,08,05,05,08,13.10
2009,08,05,05,09,13.10
2009,08,05,05,10,13.10
2009,08,05,05,11,13.10
2009,08,05,05,12,13.10
2009,08,05,05,13,13.10
2009,08,05,05,14,13.10
2009,08,05,05,15,13.10
2009,08,05,05,16,13.00
2009,08,05,05,17,13.00
2009,08,05,05,18,13.00
2009,08,05,05,19,13.00
2009,08,05,05,20,13.00
2009,08,05,05,21,13.00
2009,08,05,05,22,13.00
2009,08,05,05,23,13.00
2009,08,05,05,24,13.00
2009,08,05,05,25,13.00
2009,08,05,05,26,13.00
2009,08,05,05,27,13.00
2009,08,05,05,28,13.00
2009,08,05,05,29,12.90
2009,08,05,05,30,12.90
2009,08,05,05,31,12.90
2009,08,05,05,32,12.90
2009,08,05,05,33,12.90
2009,08,05,05,34,12.90
2009,08,05,05,35,12.90
2009,08,05,05,36,12.90
2009,08,05,05,37,12.90
2009,08,05,05,38,12.90
2009,08,05,05,39,12.90
2009,08,05,05,40,12.90
2009,08,05,05,41,12.90
2009,08,05,05,42,12.90
2009,08,05,05,43,12.90
2009,08,05,05,44,12.90
2009,08,05,05,45,12.90
2009,08,05,05,46,12.90
2009,08,05,05,47,12.90
2009,08,05,05,48,12.80
2009,08,05,05,49,12.80
2009,08,05,05,50,12.80
2009,08,05,05,51,12.80
2009,08,05,05,52,12.80
2009,08,05,05,53,12.80
2009,08,05,05,54,12.80
2009,08,05,05,55,12.80
2009,08,05,05,56,12.80
2009,08,05,05,57,12.80
2009,08,05,05,58,12.80
2009,08,05,05,59,12.80
2009,08,05,06,00,12.80
2009,08,05,06,01,12.80
2009,08,05,06,02,12.80
2009,08,05,06,03,12.80
2009,08,05,06,04,12.80
2009,08,05,06,05,12.80
2009,08,05,06,06,12.80
2009,08,05,06,07,12.80
2009,08,05,06,08,12.80
2009,08,05,06,09,12.80
2009,08,05,06,10,12.90
2009,08,05,06,11,12.90
2009,08,05,06,12,12.90
2009,08,05,06,13,12.90
2009,08,05,06,14,12.90
2009,08,05,06,15,12.90
2009,08,05,06,16,12.90
2009,08,05,06,17,12.90
2009,08,05,06,18,12.90
2009,08,05,06,19,12.90
2009,08,05,06,20,12.90
2009,08,05,06,21,12.90
2009,08,05,06,22,12.90
2009,08,05,06,23,12.80
2009,08,05,06,24,12.80
2009,08,05,06,25,12.80
2009,08,05,06,26,12.70
2009,08,05,06,27,12.70
2009,08,05,06,28,12.60
2009,08,05,06,29,12.60
2009,08,05,06,30,12.50
2009,08,05,06,31,12.50
2009,08,05,06,32,12.50
2009,08,05,06,33,12.40
2009,08,05,06,34,12.40
2009,08,05,06,35,12.40
2009,08,05,06,36,12.30
2009,08,05,06,37,12.30
2009,08,05,06,38,12.30
2009,08,05,06,39,12.30
2009,08,05,06,40,12.30
2009,08,05,06,41,12.30
2009,08,05,06,42,12.30
2009,08,05,06,43,12.30
2009,08,05,06,44,12.30
2009,08,05,06,45,12.30
2009,08,05,06,46,12.30
2009,08,05,06,47,12.30
2009,08,05,06,48,12.30
2009,08,05,06,49,12.30
2009,08,05,06,50,12.30
2009,08,05,06,51,12.30
2009,08,05,06,52,12.30
2009,08,05,06,53,12.30
2009,08,05,06,54,12.30
2009,08,05,06,55,12.30
2009,08,05,06,56,12.30
2009,08,05,06,57,12.30
2009,08,05,06,58,12.30
2009,08,05,06,59,12.30
2009,08,05,07,00,12.30
2009,08,05,07,01,12.30
2009,08,05,07,02,12.40
2009,08,05,07,03,12.40
2009,08,05,07,04,12.40
2009,08,05,07,05,12.40
2009,08,05,07,06,12.40
2009,08,05,07,07,12.40
2009,08,05,07,08,12.50
2009,08,05,07,09,12.50
2009,08,05,07,10,12.50
2009,08,05,07,11,12.50
2009,08,05,07,12,12.50
2009,08,05,07,13,12.50
2009,08,05,07,14,12.60
2009,08,05,07,15,12.60
2009,08,05,07,16,12.60
2009,08,05,07,17,12.60
2009,08,05,07,18,12.70
2009,08,05,07,19,12.70
2009,08,05,07,20,12.70
2009,08,05,07,21,12.70
2009,08,05,07,22,12.80
2009,08,05,07,23,12.80
2009,08,05,07,24,12.80
2009,08,05,07,25,12.80
2009,08,05,07,26,12.80
2009,08,05,07,27,12.80
2009,08,05,07,28,12.90
2009,08,05,07,29,12.90
2009,08,05,07,30,12.90
2009,08,05,07,31,13.00
2009,08,05,07,32,13.00
2009,08,05,07,33,13.10
2009,08,05,07,34,13.20
2009,08,05,07,35,13.20
2009,08,05,07,36,13.30
2009,08,05,07,37,13.30
2009,08,05,07,38,13.30
2009,08,05,07,39,13.40
2009,08,05,07,40,13.40
2009,08,05,07,41,13.40
2009,08,05,07,42,13.50
2009,08,05,07,43,13.50
2009,08,05,07,44,13.50
2009,08,05,07,45,13.60
2009,08,05,07,46,13.60
2009,08,05,07,47,13.70
2009,08,05,07,48,13.70
2009,08,05,07,49,13.70
2009,08,05,07,50,13.80
2009,08,05,07,51,13.80
2009,08,05,07,52,13.90
2009,08,05,07,53,13.90
2009,08,05,07,54,13.90
2009,08,05,07,55,13.90
2009,08,05,07,56,14.00
2009,08,05,07,57,14.00
2009,08,05,07,58,14.00
2009,08,05,07,59,14.00
2009,08,05,08,00,14.00
2009,08,05,08,01,14.10
2009,08,05,08,02,14.10
2009,08,05,08,03,14.10
2009,08,05,08,04,14.20
2009,08,05,08,05,14.20
2009,08,05,08,06,14.20
2009,08,05,08,07,14.30
2009,08,05,08,08,14.30
2009,08,05,08,09,14.40
2009,08,05,08,10,14.40
2009,08,05,08,11,14.50
2009,08,05,08,12,14.50
2009,08,05,08,13,14.50
2009,08,05,08,14,14.50
2009,08,05,08,15,14.50
2009,08,05,08,16,14.50
2009,08,05,08,17,14.50
2009,08,05,08,18,14.50
2009,08,05,08,19,14.60
2009,08,05,08,20,14.60
2009,08,05,08,21,14.60
2009,08,05,08,22,14.70
2009,08,05,08,23,14.70
2009,08,05,08,24,14.80
2009,08,05,08,25,14.80
2009,08,05,08,26,14.90
2009,08,05,08,27,14.90
2009,08,05,08,28,14.90
2009,08,05,08,29,15.00
2009,08,05,08,30,15.00
2009,08,05,08,31,15.20
2009,08,05,08,32,15.20
2009,08,05,08,33,15.30
2009,08,05,08,34,15.20
2009,08,05,08,35,15.20
2009,08,05,08,36,15.20
2009,08,05,08,37,15.20
2009,08,05,08,38,15.20
2009,08,05,08,39,15.20
2009,08,05,08,40,15.10
2009,08,05,08,41,15.10
2009,08,05,08,42,15.10
2009,08,05,08,43,15.20
2009,08,05,08,44,15.30
2009,08,05,08,45,15.30
2009,08,05,08,46,15.30
2009,08,05,08,47,15.30
2009,08,05,08,48,15.30
2009,08,05,08,49,15.30
2009,08,05,08,50,15.30
2009,08,05,08,51,15.40
2009,08,05,08,52,15.40
2009,08,05,08,53,15.40
2009,08,05,08,54,15.30
2009,08,05,08,55,15.40
2009,08,05,08,56,15.40
2009,08,05,08,57,15.40
2009,08,05,08,58,15.30
2009,08,05,08,59,15.30
2009,08,05,09,00,15.40
2009,08,05,09,01,15.40
2009,08,05,09,02,15.30
2009,08,05,09,03,15.40
2009,08,05,09,04,15.30
2009,08,05,09,05,15.40
2009,08,05,09,06,15.40
2009,08,05,09,07,15.40
2009,08,05,09,08,15.40
2009,08,05,09,09,15.40
2009,08,05,09,10,15.40
2009,08,05,09,11,15.40
2009,08,05,09,12,15.40
2009,08,05,09,13,15.40
2009,08,05,09,14,15.40
2009,08,05,09,15,15.40
2009,08,05,09,16,15.50
2009,08,05,09,17,15.50
2009,08,05,09,18,15.50
2009,08,05,09,19,15.50
2009,08,05,09,20,15.60
2009,08,05,09,21,15.60
2009,08,05,09,22,15.50
2009,08,05,09,23,15.50
2009,08,05,09,24,15.50
2009,08,05,09,25,15.60
2009,08,05,09,26,15.70
2009,08,05,09,27,15.80
2009,08,05,09,28,15.80
2009,08,05,09,29,15.80
2009,08,05,09,30,15.80
2009,08,05,09,31,15.90
2009,08,05,09,32,15.90
2009,08,05,09,33,15.90
2009,08,05,09,34,15.80
2009,08,05,09,35,15.80
2009,08,05,09,36,15.80
2009,08,05,09,37,15.80
2009,08,05,09,38,15.80
2009,08,05,09,39,15.80
2009,08,05,09,40,15.90
2009,08,05,09,41,15.80
2009,08,05,09,42,15.70
2009,08,05,09,43,15.70
2009,08,05,09,44,15.70
2009,08,05,09,45,15.80
2009,08,05,09,46,15.90
2009,08,05,09,47,16.00
2009,08,05,09,48,16.10
2009,08,05,09,49,16.10
2009,08,05,09,50,16.10
2009,08,05,09,51,16.10
2009,08,05,09,52,16.10
2009,08,05,09,53,16.00
2009,08,05,09,54,16.00
2009,08,05,09,55,16.10
2009,08,05,09,56,16.10
2009,08,05,09,57,16.00
2009,08,05,09,58,15.70
2009,08,05,09,59,15.60
2009,08,05,10,00,15.50
2009,08,05,10,01,15.40
2009,08,05,10,02,15.30
2009,08,05,10,03,15.30
2009,08,05,10,04,15.30
2009,08,05,10,05,15.30
2009,08,05,10,06,15.30
2009,08,05,10,07,15.30
2009,08,05,10,08,15.30
2009,08,05,10,09,15.30
2009,08,05,10,10,15.30
2009,08,05,10,11,15.30
2009,08,05,10,12,15.30
2009,08,05,10,13,15.30
2009,08,05,10,14,15.30
2009,08,05,10,15,15.20
2009,08,05,10,16,15.20
2009,08,05,10,17,15.10
2009,08,05,10,18,15.10
2009,08,05,10,19,15.00
2009,08,05,10,20,15.00
2009,08,05,10,21,15.00
2009,08,05,10,22,15.00
2009,08,05,10,23,15.00
2009,08,05,10,24,15.00
2009,08,05,10,25,15.10
2009,08,05,10,26,15.10
2009,08,05,10,27,15.20
2009,08,05,10,28,15.20
2009,08,05,10,29,15.20
2009,08,05,10,30,15.20
2009,08,05,10,31,15.30
2009,08,05,10,32,15.30
2009,08,05,10,33,15.30
2009,08,05,10,34,15.30
2009,08,05,10,35,15.30
2009,08,05,10,36,15.30
2009,08,05,10,37,15.30
2009,08,05,10,38,15.40
2009,08,05,10,39,15.50
2009,08,05,10,40,15.50
2009,08,05,10,41,15.60
2009,08,05,10,42,15.60
2009,08,05,10,43,15.50
2009,08,05,10,44,15.50
2009,08,05,10,45,15.50
2009,08,05,10,46,15.50
2009,08,05,10,47,15.40
2009,08,05,10,48,15.40
2009,08,05,10,49,15.30
2009,08,05,10,50,15.30
2009,08,05,10,51,15.40
2009,08,05,10,52,15.50
2009,08,05,10,53,15.50
2009,08,05,10,54,15.70
2009,08,05,10,55,15.80
2009,08,05,10,56,15.80
2009,08,05,10,57,15.80
2009,08,05,10,58,15.70
2009,08,05,10,59,15.70
2009,08,05,11,00,15.70
2009,08,05,11,01,15.70
2009,08,05,11,02,15.70
2009,08,05,11,03,15.80
2009,08,05,11,04,15.80
2009,08,05,11,05,15.90
2009,08,05,11,06,16.10
2009,08,05,11,07,16.10
2009,08,05,11,08,16.20
2009,08,05,11,09,16.30
2009,08,05,11,10,16.30
2009,08,05,11,11,16.30
2009,08,05,11,12,16.20
2009,08,05,11,13,16.10
2009,08,05,11,14,15.90
2009,08,05,11,15,15.90
2009,08,05,11,16,15.80
2009,08,05,11,17,15.80
2009,08,05,11,18,15.80
2009,08,05,11,19,15.80
2009,08,05,11,20,15.70
2009,08,05,11,21,15.60
2009,08,05,11,22,15.50
2009,08,05,11,23,15.50
2009,08,05,11,24,15.60
2009,08,05,11,25,15.60
2009,08,05,11,26,15.70
2009,08,05,11,27,15.60
2009,08,05,11,28,15.60
2009,08,05,11,29,15.60
2009,08,05,11,30,15.70
2009,08,05,11,31,15.80
2009,08,05,11,32,15.80
2009,08,05,11,33,15.80
2009,08,05,11,34,15.80
2009,08,05,11,35,15.80
2009,08,05,11,36,15.80
2009,08,05,11,37,15.80
2009,08,05,11,38,15.90
2009,08,05,11,39,15.90
2009,08,05,11,40,16.00
2009,08,05,11,41,15.90
2009,08,05,11,42,16.00
2009,08,05,11,43,16.10
2009,08,05,11,44,16.10
2009,08,05,11,45,16.10
2009,08,05,11,46,16.10
2009,08,05,11,47,16.10
2009,08,05,11,48,16.10
2009,08,05,11,49,16.10
2009,08,05,11,50,16.10
2009,08,05,11,51,16.20
2009,08,05,11,52,16.30
2009,08,05,11,53,16.30
2009,08,05,11,54,16.30
2009,08,05,11,55,16.30
2009,08,05,11,56,16.40
2009,08,05,11,57,16.50
2009,08,05,11,58,16.70
2009,08,05,11,59,16.80
2009,08,05,12,00,16.90
2009,08,05,12,01,16.90
2009,08,05,12,02,16.90
2009,08,05,12,03,16.90
2009,08,05,12,04,16.80
2009,08,05,12,05,16.90
2009,08,05,12,06,16.90
2009,08,05,12,07,16.90
2009,08,05,12,08,17.00
2009,08,05,12,09,16.90
2009,08,05,12,10,16.90
2009,08,05,12,11,16.90
2009,08,05,12,12,17.00
2009,08,05,12,13,17.10
2009,08,05,12,14,17.20
2009,08,05,12,15,17.30
2009,08,05,12,16,17.20
2009,08,05,12,17,17.10
2009,08,05,12,18,17.00
2009,08,05,12,19,16.90
2009,08,05,12,20,16.80
2009,08,05,12,21,16.70
2009,08,05,12,22,16.70
2009,08,05,12,23,16.70
2009,08,05,12,24,16.60
2009,08,05,12,25,16.60
2009,08,05,12,26,16.60
2009,08,05,12,27,16.80
2009,08,05,12,28,16.90
2009,08,05,12,29,16.90
2009,08,05,12,30,16.80
2009,08,05,12,31,16.80
2009,08,05,12,32,16.70
2009,08,05,12,33,16.80
2009,08,05,12,34,16.90
2009,08,05,12,35,17.00
2009,08,05,12,36,16.90
2009,08,05,12,37,16.90
2009,08,05,12,38,17.00
2009,08,05,12,39,17.00
2009,08,05,12,40,17.00
2009,08,05,12,41,16.90
2009,08,05,12,42,17.00
2009,08,05,12,43,17.00
2009,08,05,12,44,17.00
2009,08,05,12,45,17.00
2009,08,05,12,46,17.00
2009,08,05,12,47,17.00
2009,08,05,12,48,17.10
2009,08,05,12,49,17.20
2009,08,05,12,50,17.20
2009,08,05,12,51,17.20
2009,08,05,12,52,17.20
2009,08,05,12,53,17.30
2009,08,05,12,54,17.30
2009,08,05,12,55,17.20
2009,08,05,12,56,17.20
2009,08,05,12,57,17.30
2009,08,05,12,58,17.40
2009,08,05,12,59,17.50
2009,08,05,13,00,17.60
2009,08,05,13,01,17.60
2009,08,05,13,02,17.30
2009,08,05,13,03,17.20
2009,08,05,13,04,17.10
2009,08,05,13,05,17.20
2009,08,05,13,06,17.30
2009,08,05,13,07,17.30
2009,08,05,13,08,17.30
2009,08,05,13,09,17.30
2009,08,05,13,10,17.20
2009,08,05,13,11,17.10
2009,08,05,13,12,17.10
2009,08,05,13,13,17.10
2009,08,05,13,14,17.10
2009,08,05,13,15,17.00
2009,08,05,13,16,17.10
2009,08,05,13,17,17.20
2009,08,05,13,18,17.20
2009,08,05,13,19,17.20
2009,08,05,13,20,17.30
2009,08,05,13,21,17.30
2009,08,05,13,22,17.30
2009,08,05,13,23,17.50
2009,08,05,13,24,17.50
2009,08,05,13,25,17.50
2009,08,05,13,26,17.40
2009,08,05,13,27,17.30
2009,08,05,13,28,17.30
2009,08,05,13,29,17.30
2009,08,05,13,30,17.40
2009,08,05,13,31,17.40
2009,08,05,13,32,17.30
2009,08,05,13,33,17.20
2009,08,05,13,34,17.20
2009,08,05,13,35,17.20
2009,08,05,13,36,17.10
2009,08,05,13,37,17.10
2009,08,05,13,38,17.20
2009,08,05,13,39,17.20
2009,08,05,13,40,17.10
2009,08,05,13,41,17.20
2009,08,05,13,42,17.30
2009,08,05,13,43,17.30
2009,08,05,13,44,17.30
2009,08,05,13,45,17.30
2009,08,05,13,46,17.20
2009,08,05,13,47,17.30
2009,08,05,13,48,17.30
2009,08,05,13,49,17.20
2009,08,05,13,50,17.20
2009,08,05,13,51,17.20
2009,08,05,13,52,17.20
2009,08,05,13,53,17.20
2009,08,05,13,54,17.10
2009,08,05,13,55,17.10
2009,08,05,13,56,17.30
2009,08,05,13,57,17.30
2009,08,05,13,58,17.30
2009,08,05,13,59,17.30
2009,08,05,14,00,17.40
2009,08,05,14,01,17.50
2009,08,05,14,02,17.50
2009,08,05,14,03,17.50
2009,08,05,14,04,17.50
2009,08,05,14,05,17.50
2009,08,05,14,06,17.40
2009,08,05,14,07,17.30
2009,08,05,14,08,17.20
2009,08,05,14,09,17.20
2009,08,05,14,10,17.30
2009,08,05,14,11,17.50
2009,08,05,14,12,17.70
2009,08,05,14,13,17.90
2009,08,05,14,14,17.80
2009,08,05,14,15,17.70
2009,08,05,14,16,17.50
2009,08,05,14,17,17.50
2009,08,05,14,18,17.60
2009,08,05,14,19,17.60
2009,08,05,14,20,17.60
2009,08,05,14,21,17.50
2009,08,05,14,22,17.40
2009,08,05,14,23,17.30
2009,08,05,14,24,17.30
2009,08,05,14,25,17.30
2009,08,05,14,26,17.20
2009,08,05,14,27,17.10
2009,08,05,14,28,17.00
2009,08,05,14,29,17.00
2009,08,05,14,30,17.00
2009,08,05,14,31,16.90
2009,08,05,14,32,16.80
2009,08,05,14,33,16.80
2009,08,05,14,34,16.80
2009,08,05,14,35,16.90
2009,08,05,14,36,16.90
2009,08,05,14,37,17.00
2009,08,05,14,38,17.00
2009,08,05,14,39,17.00
2009,08,05,14,40,16.90
2009,08,05,14,41,16.90
2009,08,05,14,42,16.90
2009,08,05,14,43,17.00
2009,08,05,14,44,17.10
2009,08,05,14,45,17.10
2009,08,05,14,46,17.10
2009,08,05,14,47,17.20
2009,08,05,14,48,17.10
2009,08,05,14,49,17.20
2009,08,05,14,50,17.30
2009,08,05,14,51,17.30
2009,08,05,14,52,17.40
2009,08,05,14,53,17.50
2009,08,05,14,54,17.40
2009,08,05,14,55,17.30
2009,08,05,14,56,17.40
2009,08,05,14,57,17.40
2009,08,05,14,58,17.30
2009,08,05,14,59,17.10
2009,08,05,15,00,17.00
2009,08,05,15,01,17.00
2009,08,05,15,02,17.10
2009,08,05,15,03,17.20
2009,08,05,15,04,17.20
2009,08,05,15,05,17.10
2009,08,05,15,06,17.00
2009,08,05,15,07,16.90
2009,08,05,15,08,16.90
2009,08,05,15,09,16.90
2009,08,05,15,10,16.80
2009,08,05,15,11,16.80
2009,08,05,15,12,16.80
2009,08,05,15,13,16.80
2009,08,05,15,14,16.90
2009,08,05,15,15,17.00
2009,08,05,15,16,17.10
2009,08,05,15,17,17.20
2009,08,05,15,18,17.30
2009,08,05,15,19,17.30
2009,08,05,15,20,17.30
2009,08,05,15,21,17.20
2009,08,05,15,22,17.10
2009,08,05,15,23,16.90
2009,08,05,15,24,16.90
2009,08,05,15,25,16.90
2009,08,05,15,26,16.90
2009,08,05,15,27,16.90
2009,08,05,15,28,16.90
2009,08,05,15,29,16.90
2009,08,05,15,30,16.90
2009,08,05,15,31,17.00
2009,08,05,15,32,17.10
2009,08,05,15,33,17.20
2009,08,05,15,34,17.40
2009,08,05,15,35,17.50
2009,08,05,15,36,17.50
2009,08,05,15,37,17.40
2009,08,05,15,38,17.40
2009,08,05,15,39,17.40
2009,08,05,15,40,17.50
2009,08,05,15,41,17.60
2009,08,05,15,42,17.50
2009,08,05,15,43,17.60
2009,08,05,15,44,17.70
2009,08,05,15,45,17.80
2009,08,05,15,46,17.90
2009,08,05,15,47,17.90
2009,08,05,15,48,18.00
2009,08,05,15,49,18.10
2009,08,05,15,50,18.00
2009,08,05,15,51,18.10
2009,08,05,15,52,18.20
2009,08,05,15,53,18.20
2009,08,05,15,54,18.30
2009,08,05,15,55,18.30
2009,08,05,15,56,18.20
2009,08,05,15,57,18.10
2009,08,05,15,58,18.10
2009,08,05,15,59,17.90
2009,08,05,16,00,17.90
2009,08,05,16,01,17.90
2009,08,05,16,02,18.00
2009,08,05,16,03,18.00
2009,08,05,16,04,17.90
2009,08,05,16,05,17.90
2009,08,05,16,06,17.90
2009,08,05,16,07,17.90
2009,08,05,16,08,17.90
2009,08,05,16,09,17.90
2009,08,05,16,10,18.00
2009,08,05,16,11,18.10
2009,08,05,16,12,18.20
2009,08,05,16,13,18.40
2009,08,05,16,14,18.40
2009,08,05,16,15,18.40
2009,08,05,16,16,18.40
2009,08,05,16,17,18.40
2009,08,05,16,18,18.30
2009,08,05,16,19,18.30
2009,08,05,16,20,18.30
2009,08,05,16,21,18.30
2009,08,05,16,22,18.30
2009,08,05,16,23,18.30
2009,08,05,16,24,18.30
2009,08,05,16,25,18.20
2009,08,05,16,26,18.20
2009,08,05,16,27,18.20
2009,08,05,16,28,18.20
2009,08,05,16,29,18.30
2009,08,05,16,30,18.40
2009,08,05,16,31,18.40
2009,08,05,16,32,18.50
2009,08,05,16,33,18.50
2009,08,05,16,34,18.40
2009,08,05,16,35,18.40
2009,08,05,16,36,18.40
2009,08,05,16,37,18.30
2009,08,05,16,38,18.20
2009,08,05,16,39,18.20
2009,08,05,16,40,18.20
2009,08,05,16,41,18.20
2009,08,05,16,42,18.20
2009,08,05,16,43,18.30
2009,08,05,16,44,18.40
2009,08,05,16,45,18.50
2009,08,05,16,46,18.50
2009,08,05,16,47,18.50
2009,08,05,16,48,18.50
2009,08,05,16,49,18.50
2009,08,05,16,50,18.40
2009,08,05,16,51,18.30
2009,08,05,16,52,18.20
2009,08,05,16,53,18.10
2009,08,05,16,54,18.10
2009,08,05,16,55,18.10
2009,08,05,16,56,18.10
2009,08,05,16,57,18.10
2009,08,05,16,58,18.10
2009,08,05,16,59,18.10
2009,08,05,17,00,18.10
2009,08,05,17,01,18.10
2009,08,05,17,02,18.00
2009,08,05,17,03,17.90
2009,08,05,17,04,17.90
2009,08,05,17,05,17.90
2009,08,05,17,06,17.90
2009,08,05,17,07,17.90
2009,08,05,17,08,17.80
2009,08,05,17,09,17.80
2009,08,05,17,10,17.90
2009,08,05,17,11,17.90
2009,08,05,17,12,17.90
2009,08,05,17,13,17.90
2009,08,05,17,14,17.90
2009,08,05,17,15,17.90
2009,08,05,17,16,17.90
2009,08,05,17,17,17.90
2009,08,05,17,18,17.90
2009,08,05,17,19,17.90